Garden City, KS

12:23 PM CST on January 19, 2018 (GMT -0600)
Garden City Regional

Weather History for KGCK - September, 2014

Change the Weather History Date:

Wednesday, September 3, 2014

  Actual Average Record
Temperature  
Mean Temperature 84 °F 73 °F  
Max Temperature 100 °F 87 °F 100 °F (1954)
Min Temperature 67 °F 60 °F 36 °F (1974)
Degree Days  
Heating Degree Days 0 0  
Month to date heating degree days 0 0  
Since 1 July heating degree days 10 4  
Cooling Degree Days 19 9  
Month to date cooling degree days 34 27  
Year to date cooling degree days 1194 1143  
Growing Degree Days 32 (Base 50)    
Moisture  
Dew Point 63 °F    
Average Humidity 61    
Maximum Humidity 100    
Minimum Humidity 22    
Precipitation  
Precipitation 0.01 in 0.05 in 0.83 in (1981)
Month to date precipitation 0.01 0.16  
Year to date precipitation 17.66 15.81  
Sea Level Pressure  
Sea Level Pressure 29.77 in    
Wind  
Wind Speed 17 mph (SSE)    
Max Wind Speed 30 mph    
Max Gust Speed 39 mph    
Visibility 8 miles    
Events Rain , Thunderstorm    
T = Trace of Precipitation, MM = Missing Value Source: NWS Daily Summary

Daily Weather History Graph

Daily Weather History Graph

Search for Another Location

Airport or City:

Trip Planner

Search our weather history database for the weather conditions in past years. The results will help you decide how hot, cold, wet, or windy it might be!

Date:

Astronomy

Sep. 03, 2014 Rise Set
Actual Time 7:14 AM CDT 8:09 PM CDT
Civil Twilight 6:47 AM CDT 8:35 PM CDT
Nautical Twilight 6:15 AM CDT 9:07 PM CDT
Astronomical Twilight 5:42 AM CDT 9:40 PM CDT
Moon 3:49 PM CDT (9/3) 1:13 AM CDT (9/3)
Length of Visible Light 13h 48m
Length of Day
12h 54m
Waxing Gibbous, 64% of the Moon is Illuminated
Sep 3
Waxing Gibbous
Sep 8
Full
Sep 15
Last Quarter
Sep 24
New
Oct 1
First Quarter

Hourly Weather History & Observations

Time (CDT) Temp. Heat Index Dew Point Humidity Pressure Visibility Wind Dir Wind Speed Gust Speed Precip Events Conditions
12:54 AM 70.0 °F - 68.0 °F 93% 29.83 in 8.0 mi ESE 9.2 mph - N/A   Clear
1:54 AM 70.0 °F - 68.0 °F 93% 29.82 in 6.0 mi SE 10.4 mph - N/A   Clear
2:54 AM 69.1 °F - 68.0 °F 96% 29.81 in 4.0 mi ESE 10.4 mph - N/A   Partly Cloudy
3:15 AM 69.1 °F - 68.0 °F 96% 29.90 in 3.0 mi ESE 12.7 mph - N/A   Mostly Cloudy
3:31 AM 69.1 °F - 68.0 °F 96% 29.90 in 1.8 mi ESE 13.8 mph - N/A   Overcast
3:46 AM 69.1 °F - 68.0 °F 96% 29.89 in 0.8 mi ESE 15.0 mph - N/A   Mist
3:54 AM 68.0 °F - 68.0 °F 100% 29.80 in 1.0 mi SE 12.7 mph - N/A   Overcast
4:03 AM 68.0 °F - 66.9 °F 96% 29.89 in 3.0 mi SE 11.5 mph - N/A   Mostly Cloudy
4:15 AM 68.0 °F - 66.9 °F 96% 29.89 in 5.0 mi SE 11.5 mph - N/A   Scattered Clouds
4:54 AM 68.0 °F - 66.0 °F 93% 29.79 in 8.0 mi SE 12.7 mph - N/A   Clear
5:54 AM 68.0 °F - 64.9 °F 90% 29.78 in 10.0 mi SSE 11.5 mph - N/A   Clear
6:13 AM 66.9 °F - 64.9 °F 93% 29.87 in 10.0 mi SSE 6.9 mph - N/A Thunderstorm Clear
6:28 AM 66.9 °F - 64.9 °F 93% 29.87 in 10.0 mi SE 9.2 mph - N/A   Clear
6:54 AM 68.0 °F - 64.9 °F 90% 29.77 in 10.0 mi SSE 11.5 mph - N/A   Clear
7:54 AM 68.0 °F - 64.0 °F 87% 29.78 in 10.0 mi SSE 10.4 mph - N/A   Clear
8:29 AM 71.1 °F - 64.9 °F 81% 29.87 in 10.0 mi SSE 8.1 mph - N/A Thunderstorm Thunderstorm
8:46 AM 70.0 °F - 64.9 °F 84% 29.87 in 8.0 mi South 10.4 mph - N/A Rain Light Rain
8:54 AM 70.0 °F - 64.9 °F 84% 29.78 in 10.0 mi South 8.1 mph - N/A   Partly Cloudy
9:54 AM 72.0 °F - 64.9 °F 78% 29.78 in 10.0 mi SSE 11.5 mph - 0.01 in   Clear
10:54 AM 82.0 °F 83.8 °F 64.9 °F 56% 29.75 in 10.0 mi South 13.8 mph - N/A   Clear
11:54 AM 89.1 °F 89.3 °F 62.1 °F 40% 29.73 in 10.0 mi SSW 20.7 mph 27.6 mph N/A   Clear
12:54 PM 93.0 °F 92.7 °F 60.1 °F 33% 29.71 in 10.0 mi SSW 20.7 mph 29.9 mph N/A   Clear
1:54 PM 97.0 °F 95.3 °F 55.9 °F 25% 29.68 in 10.0 mi SSW 23.0 mph 32.2 mph N/A   Clear
2:54 PM 99.0 °F 96.5 °F 53.1 °F 21% 29.66 in 10.0 mi SSW 24.2 mph 35.7 mph N/A   Clear
3:54 PM 99.0 °F 97.3 °F 55.0 °F 23% 29.64 in 10.0 mi SSW 24.2 mph 35.7 mph N/A   Clear
4:54 PM 99.0 °F 96.5 °F 53.1 °F 21% 29.63 in 10.0 mi South 25.3 mph 38.0 mph N/A   Clear
5:54 PM 95.0 °F 93.4 °F 55.9 °F 27% 29.64 in 10.0 mi South 23.0 mph 34.5 mph N/A   Clear
6:54 PM 91.9 °F 90.8 °F 57.9 °F 32% 29.65 in 10.0 mi South 21.9 mph 31.1 mph N/A   Clear
7:54 PM 88.0 °F 87.1 °F 59.0 °F 37% 29.65 in 10.0 mi South 20.7 mph 31.1 mph N/A   Clear
8:54 PM 84.9 °F 84.2 °F 57.9 °F 40% 29.66 in 10.0 mi South 21.9 mph 29.9 mph N/A   Clear
9:54 PM 82.0 °F 82.1 °F 59.0 °F 45% 29.70 in 10.0 mi SSE 15.0 mph 24.2 mph N/A   Clear
10:54 PM 80.1 °F 80.9 °F 60.1 °F 50% 29.70 in 10.0 mi South 16.1 mph 24.2 mph N/A   Clear
11:54 PM 79.0 °F - 61.0 °F 54% 29.70 in 10.0 mi South 16.1 mph - N/A   Clear